Vertical_Velocity
0 0 2 -1 -1 1 -2 -0 -0 3 1 -0 0 -0 0 -6 3 -2 -3 -2 -1 -2 -1 -3 -1 -1 -2 0 8 8 -2 -1 -1 2 0 1 1 -0 -2 -1 -1 -4 -1 3 -1 -3 -0
-1 -1 0 -0 3 2 -1 -0 -1 -3 2 0 -0 4 -1 -1 0 -1 -0 -1 -4 -2 -2 -4 -2 -1 -3 6 -7 1 2 -0 -3 2 2 0 -2 -2 -1 -1 -5 -2 1 1 3 2 2
-1 1 1 1 -2 -3 1 3 0 0 1 0 1 1 -2 9 -2 -1 -2 -0 -4 -5 -4 -5 -1 -0 -2 12 -8 2 2 -4 1 -0 1 1 -1 0 -2 -2 -2 -0 1 0 1 2 1
3 -2 1 -0 1 -0 1 -1 8 1 1 -1 -0 1 -2 4 5 2 1 0 -3 -5 -6 -3 -3 -2 11 -3 -7 6 -8 -3 -3 2 1 0 -0 1 1 -4 0 0 -1 1 -0 -0 0
-3 3 1 -0 -6 1 4 4 1 -0 3 -1 -2 3 -0 -2 4 4 2 5 -11 3 -8 -1 -4 2 15 3 -1 0 4 11 -6 1 1 -1 -1 1 1 -5 1 1 -3 -0 0 0 -5
4 -5 7 -1 -4 -3 0 3 2 -2 0 2 -1 0 3 3 1 5 3 -1 -11 -1 -10 -1 -5 -1 1 -4 3 -4 -6 -1 2 -5 -0 2 -5 4 6 -3 -3 1 3 -1 5 0 -3
0 -9 12 1 -6 2 -3 2 -2 -4 -1 -1 2 -1 0 -1 2 1 3 2 -3 -6 -6 1 1 1 3 -6 2 2 1 -2 -3 -0 1 1 -10 9 1 -0 -5 -2 -2 3 2 -0 -1
-1 -2 6 2 -2 -3 5 2 6 0 0 2 -1 -2 -2 -1 -0 -7 -0 3 -16 -14 13 5 0 13 2 -21 3 6 2 2 -6 3 -1 -3 1 0 -3 2 -4 -2 -1 5 -3 2 1
-2 1 2 0 1 3 -0 -1 3 -2 4 -1 -1 3 -3 -1 -0 2 1 -0 -12 -4 -1 3 5 7 4 -25 14 8 2 -2 3 -7 1 1 9 -4 -2 -1 -1 -2 -2 4 0 -3 -5
1 1 -0 0 3 2 2 1 0 2 1 -1 -5 0 2 9 -4 -0 1 -5 -11 -6 -15 26 -4 15 -3 -5 -10 6 5 -4 -6 10 -1 -2 -0 3 -2 -1 -0 -3 -3 -4 1 -3 -1
-1 0 -0 1 1 2 2 3 2 -1 0 0 -2 -0 -0 10 2 -6 -2 1 -0 6 -42 2 -4 3 -3 2 16 15 -2 -13 5 10 -17 25 10 4 -1 10 -3 7 -4 -2 -2 -2 -0
-1 1 -1 -1 0 2 2 1 -0 -0 -0 -0 -3 -1 -1 12 2 -16 11 2 0 -5 -21 -9 2 -3 9 -4 12 -3 -10 -3 9 -4 -7 6 -2 -6 9 1 1 5 -0 -3 -3 -3 -7
-3 -1 -1 0 -1 -2 -1 -0 -2 -1 -1 -0 -3 -6 2 2 -16 7 1 -3 -8 -33 -6 8 3 1 -0 -0 4 7 -2 -3 -1 -2 2 11 7 2 4 -3 -1 -4 1 -3 -6 -5 -3
-3 -2 -1 -2 -0 0 -1 -2 -3 -2 -3 -1 -1 -6 4 -1 -4 -1 -3 -9 -21 8 13 2 1 4 3 2 10 4 -5 -7 -7 -7 -1 -5 -3 3 15 3 9 2 4 -1 -2 1 1
-3 -1 -1 -1 -1 -1 -0 1 -2 -2 -1 0 -3 -4 11 -6 -6 -0 -11 -32 -0 16 15 20 -1 -5 13 0 1 -14 -3 -6 5 3 0 1 -8 13 -2 3 2 5 -4 12 -2 1 -5
2 -2 -1 -1 1 1 0 -0 1 0 -0 0 -0 -1 14 -10 3 0 -23 -9 -4 10 16 22 -11 -1 11 0 1 -3 -5 9 4 9 5 9 -10 5 10 -3 -0 -5 5 2 -5 -4 -7
3 2 0 1 1 2 1 -0 1 2 3 6 -2 -9 26 8 -3 -15 -27 -3 9 3 14 2 19 1 9 -3 -2 -4 -8 12 9 -2 -13 9 -7 27 0 -5 6 -3 -5 -3 1 -5 -9
1 2 1 1 2 1 1 2 3 3 6 3 1 -20 21 1 -13 -15 -12 24 21 0 5 6 1 -12 11 1 1 -4 13 13 -24 -7 -5 5 4 -0 13 4 4 2 2 2 1 3 -1
1 1 1 3 2 1 1 2 2 1 4 11 -1 -5 4 0 -33 -7 14 12 4 1 9 7 3 -4 9 9 -5 -8 -6 6 -4 9 -0 0 -24 -8 -1 -10 -1 -8 -2 -1 1 -2 1
2 2 2 1 1 1 1 1 -3 8 12 16 4 -8 -13 -18 11 -5 3 2 -13 0 5 -3 3 4 -2 -3 -2 -6 5 7 20 -0 8 8 4 -16 -10 35 11 -5 -1 1 3 -10 11
3 3 0 2 4 1 1 -2 8 11 16 22 -4 -22 -0 -6 5 12 10 16 4 -1 4 1 1 8 -8 -8 -3 -15 17 -14 13 6 10 3 -16 2 16 2 6 8 0 2 -6 16 -18
0 2 1 0 -0 1 1 6 6 11 22 17 -15 -16 -2 8 5 5 -7 -12 5 1 -3 8 -7 14 -7 -10 6 2 5 13 1 15 27 13 -2 -6 -8 2 -4 -11 2 -1 -6 3 -3
3 2 3 3 3 3 3 3 7 9 21 3 -4 -3 -5 8 -4 -19 -24 83 23 9 -1 -2 2 5 7 13 1 -3 -2 6 2 3 -23 15 7 0 -7 12 11 -16 -3 1 0 -4 0
1 1 2 1 3 4 4 5 6 9 6 9 -5 11 -7 -6 -21 -11 19 2 3 13 8 7 -3 1 35 -4 -13 -3 -3 -11 -7 -11 -2 -5 38 4 -6 16 -10 -12 -17 7 -3 1 0
1 2 2 2 2 4 4 5 4 7 10 1 -0 -4 -7 -16 0 -14 -6 19 5 -5 -15 -5 13 17 4 -2 -3 -13 -8 -15 2 -1 0 12 3 23 7 19 -6 -26 6 5 -5 18 8
-1 -1 -1 -1 0 0 0 1 4 8 13 5 9 12 1 -2 -58 54 -1 8 4 8 -13 6 11 2 -5 9 -6 -26 -21 6 -2 -12 -1 3 11 1 25 7 -13 40 20 9 1 -23 10
-1 0 0 0 0 1 1 -0 2 4 7 0 -0 7 8 -3 -11 -2 -7 11 19 6 3 4 16 2 -5 -6 -2 -11 -18 2 -27 -4 -1 2 -14 -21 1 -0 -3 0 13 14 -19 50 3
4 4 4 2 1 1 1 1 2 6 8 -9 25 1 13 5 -6 -5 -1 1 6 -12 -3 28 -10 -9 -1 -10 -10 -3 -22 -2 -1 7 1 8 2 -3 8 7 16 11 4 2 -3 6 -3
0 2 2 2 1 0 1 0 1 4 5 3 -5 6 7 5 12 -9 -1 -3 -3 -5 -7 -9 2 1 -4 -4 -13 5 -13 1 16 -19 9 -15 -1 6 -27 -8 -4 62 8 -18 -3 2 -3
Height
5741 5741 5741 5743 5742 5744 5745 5746 5747 5747 5750 5754 5758 5758 5759 5764 5768 5771 5774 5775 5775 5777 5779 5780 5783 5785 5787 5791 5791 5790 5792 5792 5793 5792 5790 5791 5790 5788 5788 5787 5783 5779 5776 5772 5769 5768 5769
5728 5727 5727 5729 5728 5731 5732 5732 5734 5735 5737 5739 5745 5748 5747 5751 5755 5759 5762 5765 5766 5768 5770 5772 5775 5778 5781 5785 5782 5782 5787 5786 5787 5787 5785 5786 5784 5783 5784 5782 5780 5777 5772 5768 5768 5768 5768
5714 5714 5713 5714 5715 5717 5718 5719 5719 5722 5724 5726 5729 5734 5735 5737 5742 5746 5750 5753 5756 5759 5761 5762 5766 5770 5776 5776 5774 5779 5781 5780 5782 5781 5781 5780 5779 5779 5779 5779 5777 5775 5770 5765 5766 5766 5765
5700 5700 5702 5700 5701 5702 5705 5705 5706 5708 5710 5714 5716 5721 5722 5725 5728 5733 5737 5742 5745 5748 5753 5752 5756 5761 5770 5765 5768 5772 5772 5774 5775 5776 5776 5775 5774 5774 5774 5776 5773 5772 5767 5764 5763 5762 5762
5688 5688 5688 5689 5688 5688 5691 5691 5693 5694 5697 5700 5705 5708 5710 5712 5715 5720 5725 5728 5732 5736 5740 5743 5747 5751 5762 5759 5759 5764 5768 5770 5767 5770 5770 5769 5769 5770 5770 5771 5771 5768 5766 5762 5760 5759 5758
5681 5678 5677 5679 5679 5677 5678 5680 5680 5682 5685 5687 5692 5695 5698 5700 5703 5706 5710 5714 5717 5724 5728 5734 5737 5743 5751 5751 5753 5755 5758 5760 5762 5763 5764 5764 5764 5764 5765 5765 5766 5764 5762 5760 5757 5757 5754
5671 5671 5667 5671 5671 5671 5672 5672 5672 5673 5676 5678 5681 5683 5687 5689 5690 5693 5697 5702 5708 5713 5717 5723 5727 5733 5739 5743 5745 5746 5749 5750 5753 5756 5760 5757 5760 5762 5760 5759 5761 5759 5757 5759 5754 5749 5749
5660 5658 5660 5662 5661 5662 5663 5664 5665 5667 5669 5670 5672 5675 5676 5681 5683 5685 5688 5690 5692 5700 5708 5714 5716 5723 5729 5731 5733 5739 5740 5744 5745 5751 5751 5750 5757 5755 5753 5754 5755 5756 5755 5755 5749 5748 5747
5648 5648 5649 5650 5650 5652 5652 5654 5654 5657 5658 5660 5662 5666 5669 5673 5676 5679 5682 5684 5685 5690 5695 5707 5708 5710 5720 5716 5725 5731 5731 5734 5737 5739 5744 5744 5753 5746 5748 5748 5749 5752 5751 5751 5747 5745 5744
5635 5636 5636 5636 5638 5639 5639 5640 5642 5644 5646 5648 5652 5655 5658 5662 5666 5668 5673 5677 5679 5681 5686 5700 5700 5699 5708 5709 5707 5724 5723 5727 5728 5732 5737 5733 5743 5740 5741 5744 5743 5746 5747 5745 5743 5741 5740
5619 5620 5621 5622 5623 5624 5625 5626 5628 5631 5632 5634 5637 5642 5646 5650 5653 5657 5664 5668 5672 5677 5676 5684 5690 5690 5697 5702 5705 5713 5714 5714 5718 5726 5727 5731 5736 5736 5734 5741 5738 5743 5741 5740 5738 5738 5738
5601 5602 5603 5606 5607 5609 5610 5612 5614 5616 5618 5621 5624 5628 5633 5635 5638 5646 5652 5656 5662 5669 5668 5673 5678 5684 5688 5692 5695 5699 5703 5708 5711 5712 5715 5719 5727 5724 5730 5731 5734 5736 5735 5735 5735 5734 5735
5583 5583 5585 5587 5590 5593 5594 5596 5599 5601 5604 5607 5610 5614 5620 5621 5624 5632 5637 5644 5650 5658 5663 5665 5665 5672 5678 5684 5687 5689 5695 5700 5703 5706 5709 5714 5718 5720 5721 5724 5727 5728 5728 5729 5729 5729 5733
5561 5563 5565 5567 5570 5573 5576 5580 5582 5586 5588 5590 5594 5598 5605 5606 5611 5616 5622 5630 5642 5652 5655 5654 5653 5656 5664 5672 5675 5678 5685 5689 5694 5697 5701 5703 5708 5712 5717 5717 5721 5720 5722 5723 5723 5725 5729
5540 5542 5544 5547 5550 5553 5557 5560 5564 5568 5571 5574 5577 5582 5590 5589 5595 5600 5606 5619 5635 5639 5642 5641 5638 5646 5650 5654 5664 5668 5675 5681 5685 5689 5693 5696 5698 5707 5707 5710 5713 5714 5711 5721 5717 5718 5719
5520 5522 5525 5528 5532 5535 5538 5542 5546 5549 5554 5557 5561 5566 5578 5573 5579 5584 5592 5612 5620 5623 5623 5622 5630 5635 5639 5642 5647 5659 5664 5670 5674 5680 5683 5688 5688 5696 5700 5701 5702 5702 5709 5709 5707 5710 5712
5498 5502 5506 5510 5514 5518 5521 5525 5530 5535 5540 5544 5547 5552 5567 5562 5565 5570 5585 5599 5604 5603 5608 5609 5618 5624 5628 5631 5636 5645 5655 5660 5660 5663 5670 5675 5678 5686 5687 5687 5692 5696 5697 5700 5702 5701 5706
5479 5483 5488 5492 5496 5501 5505 5511 5517 5523 5530 5533 5536 5541 5550 5550 5557 5564 5577 5586 5587 5588 5592 5597 5600 5610 5619 5622 5628 5635 5643 5649 5649 5653 5659 5662 5667 5670 5678 5682 5685 5688 5689 5694 5693 5697 5700
5462 5467 5471 5475 5480 5485 5491 5497 5505 5513 5520 5525 5524 5532 5535 5541 5546 5558 5567 5570 5572 5577 5581 5586 5595 5600 5609 5612 5614 5622 5629 5636 5644 5645 5647 5648 5653 5656 5664 5670 5671 5672 5679 5684 5688 5690 5689
5447 5451 5456 5460 5465 5471 5478 5486 5495 5504 5511 5514 5515 5520 5525 5532 5544 5548 5552 5557 5564 5570 5575 5581 5588 5593 5596 5603 5608 5616 5622 5629 5634 5633 5637 5639 5645 5649 5653 5664 5667 5667 5672 5677 5681 5679 5684
5433 5438 5442 5446 5452 5459 5468 5476 5485 5494 5501 5502 5503 5511 5518 5525 5534 5540 5546 5554 5561 5567 5570 5574 5581 5586 5590 5596 5598 5605 5614 5618 5621 5626 5631 5635 5640 5642 5647 5650 5657 5660 5663 5668 5670 5673 5675
5422 5427 5432 5438 5444 5451 5458 5466 5474 5482 5488 5487 5492 5501 5508 5515 5521 5530 5538 5548 5555 5558 5561 5568 5574 5579 5581 5590 5589 5594 5598 5607 5612 5613 5621 5626 5632 5631 5634 5639 5645 5647 5653 5658 5662 5665 5666
5414 5418 5423 5428 5434 5440 5446 5454 5461 5469 5472 5475 5483 5490 5495 5503 5508 5519 5533 5541 5543 5546 5554 5560 5566 5570 5576 5578 5581 5585 5590 5593 5600 5602 5608 5616 5619 5623 5631 5633 5635 5635 5642 5647 5653 5655 5659
5405 5409 5413 5417 5422 5428 5434 5441 5448 5454 5459 5465 5470 5479 5483 5490 5499 5514 5519 5525 5534 5538 5544 5550 5556 5560 5566 5568 5574 5576 5580 5583 5588 5596 5599 5605 5605 5612 5618 5621 5619 5635 5633 5640 5644 5648 5651
5394 5397 5400 5405 5409 5414 5420 5426 5432 5438 5444 5450 5456 5465 5470 5476 5492 5499 5512 5517 5518 5526 5534 5541 5546 5548 5553 5557 5563 5565 5573 5576 5581 5585 5588 5591 5594 5599 5606 5610 5616 5620 5628 5632 5632 5639 5647
5380 5382 5385 5389 5393 5398 5403 5410 5416 5422 5427 5432 5441 5449 5456 5464 5478 5493 5495 5502 5509 5518 5522 5533 5535 5537 5542 5546 5551 5558 5563 5571 5572 5576 5577 5578 5581 5588 5593 5598 5602 5616 5619 5623 5625 5629 5637
5363 5364 5367 5371 5375 5380 5386 5392 5399 5406 5411 5417 5423 5435 5440 5446 5464 5471 5479 5490 5497 5504 5511 5518 5522 5525 5528 5536 5539 5547 5553 5560 5561 5569 5569 5569 5575 5580 5584 5587 5594 5598 5606 5611 5615 5627 5625
5344 5346 5348 5351 5355 5360 5365 5372 5378 5385 5392 5398 5411 5419 5429 5434 5446 5456 5465 5474 5483 5490 5499 5509 5508 5514 5516 5521 5528 5538 5543 5549 5552 5560 5562 5561 5567 5574 5578 5583 5588 5591 5596 5602 5607 5605 5611
5329 5329 5330 5332 5335 5339 5345 5351 5358 5366 5373 5382 5391 5404 5413 5422 5436 5443 5454 5464 5471 5480 5489 5492 5499 5506 5508 5513 5520 5527 5532 5537 5545 5548 5553 5556 5562 5564 5569 5579 5572 5582 5590 5591 5594 5597 5602